Regional Weather Roundup
Issued by NWS

Home | Current Version | Previous Version | Graphics & Text | Print | Product List | Glossary Off
Versions: 1 2 3 4 5 6 7 8 9 10 11 12 13 14 15 16 17 18 19 20 21 22 23 24 25 26 27 28 29 30 31 32 33 34 35 36 37 38 39 40 41 42 43 44 45 46 47 48 49 50

000
ASUS43 KTOP 232059
RWRKS

WEATHER ROUNDUP FOR KANSAS
NATIONAL WEATHER SERVICE GOODLAND KS
400 PM CDT WED AUG 23 2017

NOTE:  "FAIR" INDICATES FEW OR NO CLOUDS BELOW 12,000 FEET WITH NO
SIGNIFICANT WEATHER AND/OR OBSTRUCTIONS TO VISIBILITY.

KSZ001>006-013>018-027>032-041>047-232200-
NORTHWEST KANSAS

CITY           SKY/WX    TMP DP  RH WIND       PRES   REMARKS
GOODLAND       SUNNY     83  61  47 S18G24    30.07F
HAYS           SUNNY     84  46  26 SE12      30.08F
HILL CITY      SUNNY     87  47  24 S13       30.07F
RUSSELL        SUNNY     85  46  25 S10       30.06F
$$

KSZ061>065-074>080-084>089-232200-
SOUTHWEST KANSAS

CITY           SKY/WX    TMP DP  RH WIND       PRES   REMARKS
DODGE CITY     SUNNY     86  48  26 SE10      30.10F
ELKHART          N/A     80  67  64 SE13        N/A
GARDEN CITY    SUNNY     82  59  45 S10G17    30.10F
GREAT BEND     SUNNY     84  49  29 SE10      30.08F
LIBERAL        PTSUNNY   83  65  54 SE8       30.11F
$$

KSZ066>073-081>083-090>101-232200-
SOUTHEAST KANSAS

CITY           SKY/WX    TMP DP  RH WIND       PRES   REMARKS
CHANUTE        SUNNY     80  55  42 E5        30.08F
COFFEYVILLE    SUNNY     83  55  38 NE9       30.05F
HUTCHINSON     SUNNY     84  50  30 SE6       30.07F
MEDICINE LODGE   N/A     83  49  30 VRB7      30.06F
NEWTON         MOSUNNY   81  54  39 SE9       30.09F
PARSONS        SUNNY     81  55  40 N8        30.08F
WICHITA INTL   SUNNY     84  48  28 E10       30.06F
WICHITA JABRA  SUNNY     81  53  37 E7        30.07F
WICHITA MCCONL SUNNY     84  50  30 SE10      30.07F
WINFIELD       SUNNY     83  53  35 E10       30.07F
$$

KSZ007>012-019>026-033>040-048>060-102>105-232200-
NORTHEAST KANSAS

CITY           SKY/WX    TMP DP  RH WIND       PRES   REMARKS
CONCORDIA      SUNNY     81  53  37 E7        30.08F
EMPORIA        SUNNY     79  54  41 VRB6      30.09F
LAWRENCE       SUNNY     80  56  43 NE3       30.08F
MANHATTAN      SUNNY     81  56  42 E9        30.08F
OLATHE IND     SUNNY     80  56  43 N6        30.09F
OLATHE EXE     SUNNY     78  54  43 VRB3      30.09F
SALINA         SUNNY     87  46  24 E7        30.07F
TOPEKA BILLARD SUNNY     79  55  43 CALM      30.09F
TOPEKA FORBES  SUNNY     81  59  47 NE5       30.09F
$$




USA.gov is the U.S. government's official web portal to all federal, state and local government web resources and services.